C/2020 B2 ( Lemmon )

Japanese version
Home page
Updated on March 26, 2020

---------------------------------------------------------------------

* Profile

Discovery Date January 19, 2020
Magnitude 21.1 mag
Discoverer R. A. Kowalski (Mt. Lemmon Survey)

* Orbital Elements

Epoch 2020 Feb. 1.0 TT = JDT 2458880.5
T 2020 Jan. 26.83075 TT                                 Rudenko
q   2.7695768            (2000.0)            P               Q
z  +0.0141887      Peri.  143.80493     -0.77011817     -0.63262511
 +/-0.0000000      Node   354.31526     +0.18263607     -0.09568992
e   0.9607033      Incl.   55.74704     +0.61119724     -0.76852385
From 93 observations 2020 Jan. 19-Feb. 20, mean residual 0".4.

* Magnitudes Graph

        m1 = 14.0 + 5 log d + 10.0 log r

---------------------------------------------------------------------

The orbital elements are published on M.P.E.C. 2020-F67.
The magnitudes graphs are made with Comet for Windows.

---------------------------------------------------------------------

Copyright(C) Seiichi Yoshida (comet@aerith.net). All rights reserved.